Weather History for Truth Or Consequences, NM

Change the Weather History Date:

Sunday, December 16, 2012

  Actual Average Record
Temperature  
Mean Temperature 7 °C -  
Max Temperature 12 °C 11 °C 18 °C (2006)
Min Temperature 2 °C -2 °C -7 °C (1996)
Degree Days  
Heating Degree Days 20    
Month to date heating degree days  
Since 1 July heating degree days  
Moisture  
Dew Point -2 °C    
Average Humidity 60    
Maximum Humidity 89    
Minimum Humidity 26    
Precipitation  
Precipitation 0.00 mm - 0.18 mm (2001)
Month to date precipitation  
Year to date precipitation  
Sea Level Pressure  
Sea Level Pressure 1012 hPa    
Wind  
Wind Speed 13 km/h (NW)    
Max Wind Speed 35 km/h    
Max Gust Speed 45 km/h    
Visibility 16 kilometers    
Events      
T = Trace of Precipitation, MM = Missing Value Source: NWS Daily Summary

Daily Weather History Graph

Daily Weather History Graph

Search for Another Location

Airport:

Trip Planner

Search our weather history database for the weather conditions in past years. The results will help you decide how hot, cold, wet, or windy it might be!

Date:

Astronomy

Dec. 16, 2012 Rise Set
Actual Time 7:06 AM MST 5:03 PM MST
Civil Twilight 6:38 AM MST 5:31 PM MST
Nautical Twilight 6:07 AM MST 6:02 PM MST
Astronomical Twilight 5:37 AM MST 6:32 PM MST
Moon 9:50 AM MST (12/16) 9:11 PM MST (12/16)
Length of Visible Light 10h 52m
Length of Day
9h 57m
Waxing Crescent, 16% of the Moon is Illuminated
Dec 16
Waxing Crescent
Dec 19
First Quarter
Dec 28
Full
Jan 4
Last Quarter
Jan 11
New

Hourly Weather History & Observations

Time (MST) Temp. Windchill Dew Point Humidity Pressure Visibility Wind Dir Wind Speed Gust Speed Precip Events Conditions
12:53 AM 6.1 °C 2.4 °C 0.6 °C 68% 1009.1 hPa 16.1 km South 20.4 km/h / 5.7 m/s - N/A   Mostly Cloudy
1:53 AM 5.6 °C 2.5 °C 0.6 °C 70% 1008.9 hPa 16.1 km South 14.8 km/h / 4.1 m/s 27.8 km/h / 7.7 m/s N/A   Overcast
2:53 AM 5.6 °C 2.0 °C 0.6 °C 70% 1009.2 hPa 16.1 km SSW 18.5 km/h / 5.1 m/s - N/A   Mostly Cloudy
3:53 AM 6.1 °C - 0.6 °C 68% 1009.3 hPa 16.1 km Calm Calm - N/A   Mostly Cloudy
4:53 AM 2.8 °C 1.4 °C 0.6 °C 86% 1010.1 hPa 16.1 km North 5.6 km/h / 1.5 m/s - N/A   Mostly Cloudy
5:53 AM 2.2 °C 0.0 °C 0.6 °C 89% 1010.8 hPa 16.1 km NNE 7.4 km/h / 2.1 m/s - N/A   Overcast
6:53 AM 2.2 °C 0.7 °C 0.0 °C 86% 1011.7 hPa 16.1 km NNE 5.6 km/h / 1.5 m/s - N/A   Mostly Cloudy
7:53 AM 2.8 °C 0.7 °C 0.6 °C 86% 1012.4 hPa 16.1 km NNE 7.4 km/h / 2.1 m/s - N/A   Overcast
8:53 AM 3.3 °C 1.3 °C 0.6 °C 83% 1012.8 hPa 16.1 km North 7.4 km/h / 2.1 m/s - N/A   Overcast
9:53 AM 5.6 °C - 1.1 °C 73% 1012.3 hPa 16.1 km Calm Calm - N/A   Scattered Clouds
10:53 AM 7.2 °C 6.4 °C 1.7 °C 68% 1012.3 hPa 16.1 km SW 5.6 km/h / 1.5 m/s - N/A   Overcast
11:53 AM 8.3 °C - 0.6 °C 59% 1010.5 hPa 16.1 km Calm Calm - N/A   Overcast
12:53 PM 10.0 °C - 1.1 °C 54% 1009.2 hPa 16.1 km Calm Calm - N/A   Scattered Clouds
1:53 PM 11.1 °C - -2.8 °C 38% 1008.8 hPa 16.1 km West 18.5 km/h / 5.1 m/s 27.8 km/h / 7.7 m/s N/A   Overcast
2:53 PM 10.6 °C - -4.4 °C 35% 1009.6 hPa 16.1 km WNW 35.2 km/h / 9.8 m/s 44.4 km/h / 12.3 m/s N/A   Partly Cloudy
3:53 PM 10.0 °C - -4.4 °C 36% 1010.3 hPa 16.1 km NW 22.2 km/h / 6.2 m/s 35.2 km/h / 9.8 m/s N/A   Clear
4:53 PM 8.9 °C - -4.4 °C 39% 1012.5 hPa 16.1 km WNW 18.5 km/h / 5.1 m/s 29.6 km/h / 8.2 m/s N/A   Clear
5:53 PM 7.2 °C 3.8 °C -3.9 °C 46% 1013.9 hPa 16.1 km WNW 20.4 km/h / 5.7 m/s - N/A   Clear
6:53 PM 5.6 °C 3.6 °C -4.4 °C 49% 1015.1 hPa 16.1 km NNW 9.3 km/h / 2.6 m/s - N/A   Clear
7:53 PM 5.6 °C 2.5 °C -4.4 °C 49% 1015.7 hPa 16.1 km NW 14.8 km/h / 4.1 m/s - N/A   Clear
8:53 PM 3.9 °C 0.8 °C -4.4 °C 55% 1016.4 hPa 16.1 km WNW 13.0 km/h / 3.6 m/s - N/A   Clear
9:53 PM 3.3 °C -0.3 °C -5.0 °C 55% 1016.8 hPa 16.1 km NNW 14.8 km/h / 4.1 m/s - N/A   Clear
10:53 PM 2.8 °C -1.2 °C -5.0 °C 57% 1016.5 hPa 16.1 km NW 16.7 km/h / 4.6 m/s - N/A   Clear
11:53 PM 2.8 °C -1.2 °C -5.0 °C 57% 1016.2 hPa 16.1 km NW 16.7 km/h / 4.6 m/s - N/A   Clear